Location: Dackenheim
(49.5215°N, 8.1854°E)
Time: 11:02:54
(UTC+00:00)

Cosmos 1867 - Pass Details

Date: 19 May 2025
Orbit: 775 x 798 km, 65.0° (Epoch: 23 June)

Event Time Altitude Azimuth Distance (km) Brightness Sun altitude
Rises 21:30:57 0° 316° (NW) 3,312 8.3 -16.1°
Reaches altitude 10° 21:33:32 10° 309° (NW) 2,377 7.1 -16.3°
Maximum altitude 21:38:32 38° 243° (WSW) 1,196 4.5 -16.7°
Enters shadow 21:41:25 22° 189° (S) 1,674 4.8 -16.9°
